Zurück zum Katalog

SL-16 DEB

AktivLEO
NORAD 22425·DEBRIS·🇷🇺 Russia

Gestartet Dec 25, 1992 von Baikonur Cosmodrome

Loading…

Nächste Überflüge (nächste 24 Stunden)

TLE

AktuellSource: Space-Track

Epoche: Sep 14, 2026, 09:14 UTC

1 22425U 92093DS  26257.38483648  .00000208  00000-0  17690-3 0  9990
2 22425  71.1784  31.9278 0109731 102.1163 290.5558 13.95182567710908

Verfolge SL-16 DEB in Echtzeit mit AllMySat

Download on the App Store